Regional Weather Roundup
Issued by NWS

Home | Current Version | Previous Version | Text Only | Print | Product List | Glossary Off
Versions: 1 2 3 4 5 6 7 8 9 10 11 12 13 14 15 16 17 18 19 20 21 22 23 24 25 26 27 28 29 30 31 32 33 34 35 36 37 38 39 40 41 42 43 44 45 46 47 48 49 50

000
ASUS44 KMEG 280900
RWRTN
TENNESSEE HOURLY STATE WEATHER ROUNDUP
NATIONAL WEATHER SERVICE MEMPHIS TN
400 AM CDT TUE MAR 28 2017

TNZ002-004-019-021-049-052-054-088>092-281000-
WEST TENNESSEE

CITY           SKY/WX    TMP DP  RH WIND       PRES   REMARKS
MEMPHIS INTL   MOCLDY    65  58  78 VRB5      29.92R
NWS MEMPHIS      N/A     57 N/A N/A MISG        N/A
JACKSON        FOG       55  55 100 CALM      29.93R VSB 1/4
DYERSBURG      MOCLDY    55  54  96 NE5       29.95R
PARIS          MOCLDY    50  48  93 CALM      29.93S
$$

TNZ008-025-027-028-033-062-065-066-281000-
NORTH MIDDLE TENNESSEE

CITY           SKY/WX    TMP DP  RH WIND       PRES   REMARKS
NASHVILLE      CLOUDY    58  57  97 W6        29.91R
CLARKSVILLE    CLOUDY    54  53  97 W5        29.91R
SMYRNA         RAIN      57  56  96 S3          N/A
CROSSVILLE     CLEAR     54  52  93 VRB3      29.91S
$$

TNZ061-075-076-078-094-096-097-281000-
SOUTH MIDDLE TENNESSEE

CITY           SKY/WX    TMP DP  RH WIND       PRES   REMARKS
TULLAHOMA      CLEAR     54  54 100 SW5         N/A
COLUMBIA       CLOUDY   N/A N/A N/A SW3       29.90R
SHELBYVILLE    CLOUDY    57  57 100 CALM      29.92R
$$

TNZ017-018-042-046-047-281000-
NORTHEAST TENNESSEE

CITY           SKY/WX    TMP DP  RH WIND       PRES   REMARKS
TRI CITIES     CLOUDY    54  53  97 CALM      29.88F FOG
$$

TNZ012-013-036-069-073-074-281000-
CENTRAL EAST TENNESSEE

CITY           SKY/WX    TMP DP  RH WIND       PRES   REMARKS
KNOXVILLE      MOCLDY    57  55  93 W8        29.88S
OAK RIDGE      CLOUDY    57  54  89 VRB3      29.91S
GATLINBURG     PTCLDY    55  54  94 W6        29.88S
$$

TNZ083-085-099-281000-
SOUTHEAST TENNESSEE

CITY           SKY/WX    TMP DP  RH WIND       PRES   REMARKS
CHATTANOOGA    CLOUDY    56  55  97 CALM      29.92S
$$

SKY/WX REPORTED AS FAIR MEANS FEW OR NO CLOUDS BELOW
12 THOUSAND FEET.





USA.gov is the U.S. government's official web portal to all federal, state and local government web resources and services.